Location: Hengforden
(52.3167°N, 6.1333°E)
Time: 16:32:53
(UTC+00:00)

Cosmos 1844 Rocket - Pass Details

Date: 14 June 2025
Orbit: 823 x 844 km, 71.0° (Epoch: 19 July)

Event Time Altitude Azimuth Distance (km) Brightness Sun altitude
Exits shadow 22:54:43 20° 181° (S) 1,875 3.9 -13.8°
Maximum altitude 22:58:32 53° 112° (ESE) 1,037 3.0 -13.9°
Drops below altitude 10° 23:04:02 10° 38° (NE) 2,476 5.8 -14.1°
Sets 23:06:32 0° 34° (NNE) 3,415 6.7 -14.1°
